User: anonymous
Location: Unspecified
(0.0000°N, 0.0000°E)
Time: 23:36:21
(UTC+00:00)
Language:

RISAT 1 - Orbit

View from above orbital plane
View from above orbital plane
View from above satellite
View from above satellite

Ground track
Ground track

The orbit data is extracted from the following two-line orbital elements,

1 38248U 12017A   14260.52983000  .00002006  00000-0  13100-3 0  6977
2 38248 097.5627 266.3827 0000709 292.4059 224.2924 15.08971151131888
Epoch (UTC): 17 September 2014 12:42:57
Eccentricity: 0.0000709
inclination: 97.5627°
perigee height: 539 km
apogee height: 540 km
right ascension of ascending node: 266.3827°
argument of perigee: 292.4059°
revolutions per day: 15.08971151
mean anomaly at epoch: 224.2924°
orbit number at epoch: 13188

The dashed part of the orbit path shows where the satellite is in the earth's shadow,  

DLR